GW1647 Weather Reports


Display with metric or nautical units.
time (UTC)temp
F
wind
direction
speed
MPH
gust
MPH
rain 1hr
in
rain 24hr
in
rain mn
in
humidity
%
barometer
mb
20240530010055 75 101 1.0 11.0 0.00 0.00 0.00 44 1018.1
20240530004555 75 117 3.0 10.0 0.00 0.00 0.00 44 1018.2
20240530003056 76 93 3.0 8.0 0.00 0.00 0.00 44 1018.2
20240530001603 76 124 2.0 10.0 0.00 0.00 0.00 42 1018.3
20240530000104 77 105 2.0 10.0 0.00 0.00 0.00 41 1018.4
20240529234605 78 101 3.0 11.0 0.00 0.00 0.00 41 1018.7
20240529233057 79 108 3.0 11.0 0.00 0.00 0.00 39 1018.9
20240529231554 80 0 2.0 9.0 0.00 0.00 0.00 38 1019.1
20240529230057 80 0 5.0 9.0 0.00 0.00 0.00 40 1019.3
20240529224559 80 0 1.0 8.0 0.00 0.00 0.00 39 1019.3
20240529223056 81 0 2.0 7.0 0.00 0.00 0.00 40 1019.4
20240529221555 81 119 2.0 10.0 0.00 0.00 0.00 37 1019.4
20240529220053 80 126 0.0 9.0 0.00 0.00 0.00 38 1019.6
20240529214603 80 0 2.0 9.0 0.00 0.00 0.00 39 1019.8
20240529213102 81 96 2.0 8.0 0.00 0.00 0.00 37 1019.8
20240529211600 81 129 1.0 11.0 0.00 0.00 0.00 38 1019.9
20240529210107 80 57 1.0 8.0 0.00 0.00 0.00 39 1020.0
20240529204558 80 103 5.0 10.0 0.00 0.00 0.00 39 1020.3
20240529203055 80 0 3.0 10.0 0.00 0.00 0.00 38 1020.5
20240529201555 79 56 1.0 7.0 0.00 0.00 0.00 39 1020.8
20240529200055 79 108 2.0 8.0 0.00 0.00 0.00 40 1021.0
20240529194556 78 0 1.0 11.0 0.00 0.00 0.00 41 1021.3
20240529193059 79 86 1.0 8.0 0.00 0.00 0.00 41 1021.5
20240529191604 78 0 4.0 8.0 0.00 0.00 0.00 42 1021.5
20240529190055 78 0 0.0 9.0 0.00 0.00 0.00 42 1021.6
20240529184556 77 0 0.0 7.0 0.00 0.00 0.00 42 1021.7
20240529183055 77 107 1.0 5.0 0.00 0.00 0.00 43 1021.9
20240529181555 77 0 1.0 9.0 0.00 0.00 0.00 47 1022.1
20240529180056 75 0 0.0 8.0 0.00 0.00 0.00 47 1022.3
20240529174556 75 0 1.0 9.0 0.00 0.00 0.00 46 1022.6
20240529173053 74 0 2.0 8.0 0.00 0.00 0.00 49 1022.6
20240529171602 74 0 0.0 8.0 0.00 0.00 0.00 51 1022.7
20240529170103 74 133 1.0 5.0 0.00 0.00 0.00 49 1022.8
20240529164559 73 0 0.0 2.0 0.00 0.00 0.00 54 1023.0
20240529163058 73 0 1.0 7.0 0.00 0.00 0.00 53 1023.1
20240529161555 72 0 0.0 7.0 0.00 0.00 0.00 54 1023.0
20240529160100 71 0 1.0 10.0 0.00 0.00 0.00 52 1023.1
20240529154558 70 0 3.0 11.0 0.00 0.00 0.00 53 1023.4
20240529153055 69 100 2.0 9.0 0.00 0.00 0.00 54 1023.5
20240529151555 69 169 2.0 11.0 0.00 0.00 0.00 53 1023.5
20240529150057 68 0 0.0 7.0 0.00 0.00 0.00 57 1023.7
20240529144626 67 59 0.0 5.0 0.00 0.00 0.00 55 1023.7
20240529143055 67 82 1.0 7.0 0.00 0.00 0.00 58 1023.8
20240529141556 66 0 1.0 7.0 0.00 0.00 0.00 61 1023.8
20240529140103 65 0 0.0 6.0 0.00 0.00 0.00 64 1023.8
20240529134555 64 0 0.0 5.0 0.00 0.00 0.00 64 1023.9
20240529133056 63 0 0.0 4.0 0.00 0.00 0.00 68 1023.9
20240529131557 61 0 0.0 5.0 0.00 0.00 0.00 69 1023.7
20240529130109 60 0 0.0 5.0 0.00 0.00 0.00 71 1024.0
20240529124600 59 57 0.0 3.0 0.00 0.00 0.00 71 1024.0
20240529123102 58 0 0.0 0.0 0.00 0.00 0.00 73 1024.0
20240529121556 56 0 0.0 0.0 0.00 0.00 0.00 78 1023.9
20240529120056 54 0 0.0 0.0 0.00 0.00 0.00 82 1023.8
20240529114554 53 0 0.0 0.0 0.00 0.00 0.00 82 1023.9
20240529113108 52 0 0.0 0.0 0.00 0.00 0.00 83 1023.8
20240529111608 52 0 0.0 0.0 0.00 0.00 0.00 81 1023.7
20240529110056 52 0 0.0 0.0 0.00 0.00 0.00 79 1023.7
20240529104556 52 0 0.0 0.0 0.00 0.00 0.00 81 1023.5
20240529103056 53 0 0.0 0.0 0.00 0.00 0.00 77 1023.4
20240529101559 53 0 0.0 0.0 0.00 0.00 0.00 78 1023.1
20240529100059 54 0 0.0 0.0 0.00 0.00 0.00 75 1023.1
20240529094600 54 0 0.0 0.0 0.00 0.00 0.00 75 1023.0
20240529093057 54 0 0.0 0.0 0.00 0.00 0.00 76 1022.9
20240529091555 54 0 0.0 0.0 0.00 0.00 0.00 74 1022.6
20240529090056 55 0 0.0 0.0 0.00 0.00 0.00 73 1022.7
20240529084555 54 0 0.0 0.0 0.00 0.00 0.00 74 1022.4
20240529083054 54 0 0.0 0.0 0.00 0.00 0.00 75 1022.4
20240529081556 55 0 0.0 0.0 0.00 0.00 0.00 72 1022.2
20240529080104 56 0 0.0 0.0 0.00 0.00 0.00 70 1022.2
20240529074554 56 0 0.0 0.0 0.00 0.00 0.00 69 1022.0
20240529073056 57 0 0.0 0.0 0.00 0.00 0.00 69 1021.9
20240529071557 57 0 0.0 0.0 0.00 0.00 0.00 68 1021.8
20240529070108 58 0 0.0 0.0 0.00 0.00 0.00 67 1021.7
20240529064554 58 0 0.0 1.0 0.00 0.00 0.00 66 1021.8
20240529063106 59 0 0.0 1.0 0.00 0.00 0.00 66 1021.9
20240529061556 59 0 0.0 0.0 0.00 0.00 0.00 64 1022.1
20240529060056 60 0 0.0 0.0 0.00 0.00 0.00 63 1022.2
20240529054556 59 0 0.0 0.0 0.00 0.00 0.00 65 1022.1
20240529053054 60 0 0.0 0.0 0.00 0.00 0.00 67 1022.1
20240529051556 60 0 0.0 0.0 0.00 0.00 0.00 64 1022.2
20240529050059 60 0 0.0 0.0 0.00 0.00 0.00 64 1022.2
20240529044555 61 0 0.0 0.0 0.00 0.00 0.00 61 1022.2
20240529043125 62 0 0.0 0.0 0.00 0.00 0.00 59 1022.3
20240529041556 62 0 0.0 0.0 0.00 0.00 0.00 59 1022.3
20240529040056 63 0 0.0 0.0 0.00 0.00 0.00 58 1022.0
20240529035021 64 0 0.0 0.0 0.00 0.00 0.00 55 1021.7
20240529031046 65 0 0.0 0.0 0.00 0.00 0.00 51 1020.5
20240529015611 69 0 0.0 0.0 0.00 0.00 0.00 47 1019.8
20240529011558 72 352 0.0 2.0 0.00 0.00 0.00 43 1019.5